• Join FlightAware (Why Join?)
  • Login
  • US Flag 
03:06PM EST


 

Airport Tracker/Info


-or-


 

Live Flight TrackerFlight Track Log ✈ ASQ5740 ✈ 24-Nov-2013 ✈ KGSP - KIAD

Flight Track Log - Related Links

Times and Time Zones

All times are in EST time to prevent confusion due to time zone crossing. See the ASQ5740 flight status page for this flight to view local times or setup timezone preferences in your user account.

Time Position Orientation Groundspeed Altitude Reporting Facility
EST Latitude Longitude Course Direction KTS MPH feet Rate Location/Type
02:57PM 35.0067 -82.1394 73° East 264 304 6,300  Level Atlanta Center
02:58PM 35.0642 -82.0847 38° Northeast 264 304 8,500 2,150 Climbing Atlanta Center
02:59PM 35.2811 -81.7961 71° East  Level Estimated
02:59PM 35.1239 -82.0225 40° Northeast 269 310 10,600  Level Atlanta Center
03:00PM 35.3740 -81.7402 26° Northeast  Level FlightAware Approximate
03:00PM 35.1831 -81.9525 44° Northeast 280 322 12,600  Level Atlanta Center
03:01PM 35.4505 -81.6544 73° East  Level Estimated
03:01PM 35.2528 -81.8769 41° Northeast 306 352 13,500  Level Atlanta Center
03:02PM 35.3047 -81.7586 62° Northeast 362 417 14,500 1,000 Climbing Atlanta Center
03:03PM 35.3589 -81.6347 62° Northeast 375 432 15,500 1,000 Climbing Atlanta Center
03:04PM 35.4125 -81.5083 62° Northeast 400 460 16,500 1,050 Climbing Atlanta Center
03:05PM 35.4661 -81.3792 63° Northeast 414 476 17,600 900 Climbing Atlanta Center
03:06PM 35.5256 -81.2292 64° Northeast 425 489 18,300 850 Climbing Atlanta Center
03:07PM 35.5850 -81.0944 61° Northeast 431 496 19,300 1,000 Climbing Atlanta Center
03:08PM 35.6419 -80.9594 63° Northeast 436 502 20,300 1,000 Climbing Atlanta Center
03:09PM 35.6992 -80.8244 62° Northeast 436 502 21,300 1,000 Climbing Atlanta Center
03:10PM 35.7558 -80.6864 63° Northeast 441 507 22,300 850 Climbing Atlanta Center
03:11PM 35.8125 -80.5486 63° Northeast 441 507 23,000 350 Climbing Atlanta Center
03:12PM 35.8711 -80.4050 63° Northeast 446 513 23,000 550 Level Atlanta Center
03:13PM 35.9292 -80.2589 64° Northeast 457 526 24,100 609 Climbing Atlanta Center
03:15PM 36.0600 -79.9522 62° Northeast 452 520 25,000 277 Climbing Washington Center
03:16PM 36.1378 -79.8150 55° Northeast 469 540 25,000  Level Washington Center
03:17PM 36.2244 -79.6628 55° Northeast 494 568 25,000  Level Washington Center
03:18PM 36.2956 -79.5375 55° Northeast 494 568 25,000  Level Washington Center
03:19PM 36.3728 -79.4047 54° Northeast 494 568 25,000  Level Washington Center
03:20PM 36.4569 -79.2486 56° Northeast 488 562 25,000  Level Washington Center
03:21PM 36.5167 -79.1406 55° Northeast 482 555 25,000  Level Washington Center
03:22PM 36.6022 -78.9942 54° Northeast 476 548 25,000  Level Washington Center
03:23PM 36.6836 -78.8397 57° Northeast 476 548 25,000  Level Washington Center
03:24PM 36.7517 -78.7156 56° Northeast 483 556 25,000 -102 Level Washington Center
03:25PM 36.8261 -78.5811 55° Northeast 483 556 24,800 -893 Descending Washington Center
03:26PM 36.9006 -78.4411 56° Northeast 448 516 23,200 -1,400 Descending Washington Center
03:27PM 36.9614 -78.3289 56° Northeast 437 503 22,000 -605 Descending Washington Center
03:28PM 37.0456 -78.2019 50° Northeast 431 496 22,000  Level Washington Center
03:29PM 37.1369 -78.1294 32° Northeast 402 463 22,000  Level Washington Center
03:30PM 37.2322 -78.0569 31° Northeast 402 463 22,000  Level Washington Center
03:31PM 37.3275 -77.9842 31° Northeast 397 457 22,000  Level Washington Center
03:32PM 37.4208 -77.9139 31° Northeast 392 451 22,000  Level Washington Center
03:33PM 37.5119 -77.8408 32° Northeast 392 451 22,000 -857 Level Washington Center
03:34PM 37.6069 -77.7833 26° Northeast 392 451 20,300 -1,780 Descending Washington Center
03:35PM 37.6975 -77.7283 26° Northeast 369 425 18,500 -1,537 Descending Washington Center
03:36PM 37.7839 -77.6781 25° Northeast 356 410 17,200 -1,537 Descending Washington Center
03:37PM 37.8661 -77.6303 25° Northeast 335 386 15,400 -1,785 Descending Washington Center
03:38PM 37.9461 -77.5850 24° Northeast 323 372 13,600 -1,785 Descending Washington Center
03:39PM 38.0219 -77.5397 25° Northeast 308 354 11,800 -1,729 Descending Washington Center
03:40PM 38.0956 -77.5019 22° Northeast 302 348 10,200 -915 Descending Washington Center
03:41PM 38.1625 -77.4772 16° North 280 322 10,000 -49 Descending Washington Center
03:42PM 38.2294 -77.4764 North 251 289 10,100 -49 Climbing Washington Center
03:43PM 38.2919 -77.4753 North 237 273 9,900 -1,220 Descending Washington Center
03:44PM 38.3567 -77.4742 North 232 267 7,700 -1,400 Descending Washington Center
03:45PM 38.4256 -77.4681 North 237 273 7,100 -590 Descending Washington Center
03:46PM 38.4922 -77.4697 359° North 237 273 6,500 -661 Descending Washington Center
03:47PM 38.5589 -77.4661 North 237 273 5,800 -1,068 Descending Washington Center
03:48PM 38.6236 -77.4650 North 231 266 4,400 -971 Descending Washington Center
03:49PM 38.6667 -77.4667 358° North 194 223 4,100 -170 Descending Potomac TRACON
03:50PM 38.7167 -77.4667 360° North 175 201 4,100 -50 Level Potomac TRACON
03:51PM 38.7667 -77.4667 360° North 176 203 4,000 -574 Descending Potomac TRACON
03:52PM 38.8167 -77.4667 360° North 171 197 3,000 -1,043 Descending Potomac TRACON
03:53PM 38.8667 -77.4667 360° North 174 200 2,000 -900 Descending Potomac TRACON
03:54PM 38.9000 -77.4667 360° North 134 154 1,200 -800 Descending Potomac TRACON